• In Hungary
  • List of Countries
  • For 7 days
  • Water Temperature
  • Satellite Maps
  • Weather Map
  • News
  • Weather Widgets
  • user-avatar
    Login

    Hourly Weather Rawson

    Today, 22 January, Monday

    Time Temperature Precipitation Wind Pressure Humidity
    00:00 +29°C° 0 mm 7 mps 750 mmHg 45%
    01:00 +29°C° 0 mm 6 mps 750 mmHg 43%
    02:00 +28°C° 0 mm 6 mps 750 mmHg 40%
    03:00 +28°C° 0 mm 6 mps 750 mmHg 36%
    04:00 +27°C° 0 mm 6 mps 750 mmHg 33%
    05:00 +27°C° 0 mm 6 mps 749 mmHg 30%
    06:00 +27°C° 0 mm 7 mps 750 mmHg 26%
    07:00 +28°C° 0 mm 7 mps 750 mmHg 23%
    08:00 +28°C° 0 mm 7 mps 750 mmHg 19%
    09:00 +29°C° 0 mm 7 mps 751 mmHg 18%
    10:00 +30°C° 0 mm 6 mps 751 mmHg 17%
    11:00 +32°C° 0 mm 5 mps 751 mmHg 15%
    12:00 +32°C° 0 mm 5 mps 750 mmHg 15%
    13:00 +33°C° 0 mm 5 mps 750 mmHg 15%
    14:00 +33°C° 0 mm 5 mps 750 mmHg 15%
    15:00 +33°C° 0 mm 5 mps 749 mmHg 16%
    16:00 +32°C° 0 mm 5 mps 749 mmHg 18%
    17:00 +32°C° 0 mm 5 mps 748 mmHg 19%
    18:00 +29°C° 0 mm 5 mps 748 mmHg 24%
    19:00 +27°C° 0 mm 5 mps 748 mmHg 28%
    20:00 +25°C° 0 mm 5 mps 748 mmHg 33%
    21:00 +25°C° 0 mm 4 mps 749 mmHg 33%
    22:00 +25°C° 0 mm 3 mps 750 mmHg 34%
    23:00 +25°C° 0 mm 2 mps 751 mmHg 35%

    Tomorrow, 23 January, Tuesday

    Time Temperature Precipitation Wind Pressure Humidity
    00:00 +24°C° 0 mm 3 mps 751 mmHg 33%
    01:00 +23°C° 0 mm 4 mps 751 mmHg 31%
    02:00 +23°C° 0 mm 5 mps 752 mmHg 29%
    03:00 +22°C° 0 mm 6 mps 752 mmHg 30%
    04:00 +21°C° 0 mm 6 mps 752 mmHg 31%
    05:00 +21°C° 0 mm 7 mps 753 mmHg 33%
    06:00 +21°C° 0 mm 7 mps 753 mmHg 32%
    07:00 +21°C° 0 mm 8 mps 754 mmHg 32%
    08:00 +21°C° 0 mm 8 mps 754 mmHg 32%
    09:00 +22°C° 0 mm 8 mps 755 mmHg 28%
    10:00 +23°C° 0 mm 8 mps 755 mmHg 24%
    11:00 +23°C° 0 mm 8 mps 756 mmHg 20%
    12:00 +23°C° 0 mm 9 mps 756 mmHg 25%
    13:00 +23°C° 0 mm 10 mps 756 mmHg 29%
    14:00 +22°C° 0 mm 11 mps 757 mmHg 34%
    15:00 +21°C° 0 mm 11 mps 757 mmHg 35%
    16:00 +21°C° 0 mm 11 mps 758 mmHg 36%
    17:00 +19°C° 0 mm 11 mps 759 mmHg 37%
    18:00 +18°C° 0 mm 10 mps 760 mmHg 41%
    19:00 +17°C° 0 mm 10 mps 760 mmHg 45%
    20:00 +16°C° 0 mm 10 mps 761 mmHg 48%
    21:00 +15°C° 0 mm 9 mps 762 mmHg 50%
    22:00 +15°C° 0 mm 9 mps 763 mmHg 51%
    23:00 +13°C° 0 mm 8 mps 764 mmHg 53%

    Day after tomorrow, 24 January, Wednesday

    Time Temperature Precipitation Wind Pressure Humidity
    00:00 +14°C° 0 mm 7 mps 764 mmHg 53%
    01:00 +14°C° 0 mm 6 mps 764 mmHg 53%
    02:00 +14°C° 0 mm 5 mps 764 mmHg 53%
    03:00 +14°C° 0 mm 4 mps 764 mmHg 54%
    04:00 +13°C° 0 mm 3 mps 764 mmHg 56%
    05:00 +14°C° 0 mm 2 mps 764 mmHg 57%
    06:00 +15°C° 0 mm 2 mps 765 mmHg 52%
    07:00 +16°C° 0 mm 3 mps 765 mmHg 48%
    08:00 +17°C° 0 mm 3 mps 765 mmHg 43%
    09:00 +18°C° 0 mm 3 mps 765 mmHg 38%
    10:00 +20°C° 0 mm 4 mps 765 mmHg 33%
    11:00 +21°C° 0 mm 4 mps 765 mmHg 28%
    12:00 +22°C° 0 mm 5 mps 765 mmHg 25%
    13:00 +23°C° 0 mm 5 mps 764 mmHg 23%
    14:00 +24°C° 0 mm 6 mps 764 mmHg 21%
    15:00 +24°C° 0 mm 7 mps 763 mmHg 22%
    16:00 +24°C° 0 mm 8 mps 762 mmHg 23%
    17:00 +24°C° 0 mm 9 mps 762 mmHg 23%
    18:00 +23°C° 0 mm 9 mps 762 mmHg 27%
    19:00 +22°C° 0 mm 10 mps 762 mmHg 31%
    20:00 +19°C° 0 mm 10 mps 762 mmHg 34%
    21:00 +19°C° 0 mm 10 mps 762 mmHg 39%
    22:00 +18°C° 0 mm 11 mps 762 mmHg 44%
    23:00 +17°C° 0 mm 11 mps 762 mmHg 49%

    25 January, Thursday

    Time Temperature Precipitation Wind Pressure Humidity
    00:00 +17°C° 0 mm 11 mps 762 mmHg 52%
    01:00 +17°C° 0 mm 12 mps 761 mmHg 54%
    02:00 +17°C° 0 mm 12 mps 761 mmHg 57%
    03:00 +17°C° 0 mm 11 mps 760 mmHg 56%
    04:00 +17°C° 0 mm 11 mps 760 mmHg 55%
    05:00 +17°C° 0 mm 10 mps 760 mmHg 54%
    06:00 +18°C° 0 mm 11 mps 760 mmHg 48%
    07:00 +21°C° 0 mm 11 mps 760 mmHg 43%
    08:00 +22°C° 0 mm 11 mps 760 mmHg 38%
    09:00 +24°C° 0 mm 11 mps 760 mmHg 34%
    10:00 +27°C° 0 mm 11 mps 759 mmHg 29%
    11:00 +31°C° 0 mm 10 mps 759 mmHg 24%
    12:00 +31°C° 0 mm 10 mps 758 mmHg 24%
    13:00 +31°C° 0 mm 10 mps 758 mmHg 25%
    14:00 +31°C° 0 mm 10 mps 757 mmHg 25%
    15:00 +32°C° 0 mm 11 mps 757 mmHg 24%
    16:00 +32°C° 0 mm 11 mps 756 mmHg 23%
    17:00 +32°C° 0 mm 11 mps 756 mmHg 21%
    18:00 +31°C° 0.3 mm 11 mps 756 mmHg 27%
    19:00 +28°C° 0.3 mm 11 mps 755 mmHg 32%
    20:00 +26°C° 0.3 mm 11 mps 755 mmHg 37%
    21:00 +26°C° 0.8 mm 11 mps 755 mmHg 40%
    22:00 +24°C° 0.8 mm 11 mps 755 mmHg 42%
    23:00 +24°C° 0.8 mm 11 mps 754 mmHg 45%

    26 January, Friday

    Time Temperature Precipitation Wind Pressure Humidity
    00:00 +24°C° 0.4 mm 11 mps 754 mmHg 45%
    01:00 +23°C° 0.4 mm 11 mps 754 mmHg 44%
    02:00 +23°C° 0.4 mm 11 mps 753 mmHg 44%
    03:00 +23°C° 0.1 mm 11 mps 753 mmHg 44%
    04:00 +23°C° 0.1 mm 10 mps 753 mmHg 45%
    05:00 +23°C° 0.1 mm 9 mps 752 mmHg 46%
    06:00 +24°C° 0 mm 8 mps 752 mmHg 39%
    07:00 +27°C° 0 mm 8 mps 752 mmHg 31%
    08:00 +28°C° 0 mm 7 mps 752 mmHg 23%
    09:00 +29°C° 0 mm 6 mps 752 mmHg 22%
    10:00 +30°C° 0 mm 5 mps 752 mmHg 20%
    11:00 +32°C° 0 mm 4 mps 752 mmHg 18%
    12:00 +33°C° 0 mm 4 mps 751 mmHg 17%
    13:00 +34°C° 0 mm 4 mps 751 mmHg 16%
    14:00 +34°C° 0 mm 4 mps 750 mmHg 15%
    15:00 +35°C° 0 mm 4 mps 750 mmHg 15%
    16:00 +35°C° 0 mm 5 mps 750 mmHg 14%
    17:00 +35°C° 0 mm 5 mps 749 mmHg 14%
    18:00 +34°C° 0 mm 5 mps 749 mmHg 14%
    19:00 +34°C° 0 mm 5 mps 749 mmHg 15%
    20:00 +33°C° 0 mm 5 mps 749 mmHg 16%
    21:00 +32°C° 0 mm 5 mps 749 mmHg 21%
    22:00 +30°C° 0 mm 6 mps 750 mmHg 25%
    23:00 +29°C° 0 mm 6 mps 750 mmHg 30%

    27 January, Saturday

    Time Temperature Precipitation Wind Pressure Humidity
    00:00 +27°C° 0 mm 7 mps 750 mmHg 32%
    01:00 +26°C° 0 mm 9 mps 750 mmHg 35%
    02:00 +24°C° 0 mm 10 mps 750 mmHg 37%
    03:00 +23°C° 0 mm 9 mps 750 mmHg 37%
    04:00 +23°C° 0 mm 8 mps 751 mmHg 37%
    05:00 +22°C° 0 mm 8 mps 751 mmHg 36%
    06:00 +23°C° 0 mm 8 mps 751 mmHg 35%
    07:00 +23°C° 0 mm 9 mps 751 mmHg 34%
    08:00 +23°C° 0 mm 9 mps 752 mmHg 33%
    09:00 +24°C° 0 mm 9 mps 752 mmHg 30%
    10:00 +26°C° 0 mm 9 mps 751 mmHg 27%
    11:00 +27°C° 0 mm 10 mps 751 mmHg 24%
    12:00 +28°C° 0 mm 9 mps 751 mmHg 22%
    13:00 +28°C° 0 mm 9 mps 751 mmHg 19%
    14:00 +29°C° 0 mm 9 mps 750 mmHg 16%
    15:00 +29°C° 0 mm 9 mps 750 mmHg 16%
    16:00 +29°C° 0 mm 9 mps 750 mmHg 16%
    17:00 +29°C° 0 mm 8 mps 750 mmHg 16%
    18:00 +29°C° 0 mm 8 mps 750 mmHg 17%
    19:00 +28°C° 0 mm 8 mps 750 mmHg 18%
    20:00 +27°C° 0 mm 8 mps 751 mmHg 19%
    21:00 +27°C° 0 mm 9 mps 751 mmHg 21%
    22:00 +26°C° 0 mm 9 mps 752 mmHg 23%
    23:00 +24°C° 0 mm 10 mps 752 mmHg 25%
    Show more